Temp
1 1 1 1 1 1 1 1 1 1 1 1 1 1 1 1 1 1 1 1 1 1 1 1 1 2 2 2 2 2 2 2 1 1 1 0 0 0 0 0 0 -0 -0 -0 -0 -0 -0 -0 -0 -0 0 0 0 0 0 1 1 1 1 1 1 1 1 2 2 2 2 2 2 2 2 2 2 2 2 2 2 2 2 2 2 2 2 2 2 3
1 1 1 1 1 1 1 1 1 1 1 1 1 1 1 1 1 1 1 1 1 1 1 1 1 1 2 2 2 1 1 1 1 1 0 0 0 0 0 0 0 -0 -0 0 0 0 0 0 0 0 0 0 1 1 1 1 1 1 1 1 1 1 2 2 2 2 2 2 2 2 2 2 2 2 2 2 2 2 2 2 2 2 2 2 2 3
1 1 1 1 1 0 0 0 1 1 1 1 1 1 1 1 1 1 1 1 1 1 1 1 1 1 1 1 1 1 1 0 -0 -0 -0 -0 -0 -0 0 0 -0 -0 0 0 0 0 0 0 0 0 1 1 1 1 1 1 1 1 1 1 1 1 1 1 1 1 1 1 1 1 1 1 1 1 1 1 2 2 2 2 2 2 2 2 2 2
0 0 1 1 0 0 0 0 0 0 0 0 0 0 0 0 0 0 0 0 0 0 0 0 0 0 0 0 0 0 -0 -1 -1 -1 -0 -0 -0 0 -0 -0 -0 -0 -0 -0 -0 -0 0 0 0 0 1 1 1 1 1 1 1 1 1 1 1 1 1 1 1 1 1 1 1 1 1 1 1 1 1 1 1 1 1 1 1 2 2 2 2 2
0 0 0 0 0 0 0 0 0 0 0 0 0 -0 -0 -0 -0 -0 -0 -0 -0 -0 -0 -0 -0 -0 -0 -0 -0 -0 -0 -1 -1 -1 -1 -0 -0 -0 -0 -0 -0 -0 -0 -0 -0 -0 -0 -0 0 0 0 1 1 1 1 1 1 1 1 1 1 1 1 1 1 1 1 1 1 1 1 1 1 1 1 1 1 1 1 1 1 1 1 1 1 1
-0 -0 -0 -0 -0 -0 -0 -0 -0 -0 -0 -0 -0 -0 -0 -0 -0 -0 -1 -0 -0 -0 -0 -0 -0 -0 -0 -0 -0 -0 -0 -1 -1 -1 -1 -1 -1 -1 -1 -1 -1 -1 -1 -1 -1 -1 -0 -0 0 0 0 0 0 0 0 1 0 0 0 0 0 0 0 0 0 0 0 0 0 0 0 1 1 1 1 1 1 1 1 1 1 1 1 1 1 1
-1 -1 -1 -1 -0 -0 -0 -0 -0 -0 -0 -1 -1 -1 -1 -0 -0 -0 -0 -0 -0 -0 -0 -0 -0 -0 -0 -0 -0 -0 -0 -1 -1 -1 -1 -1 -1 -1 -1 -1 -1 -1 -1 -1 -1 -1 -1 -0 -0 -0 -0 -0 -0 -0 0 0 0 0 -0 0 0 0 0 0 0 0 0 0 0 0 0 0 0 0 0 0 0 0 0 0 0 1 1 1 1 1
-1 -1 -1 -1 -0 -0 -0 -0 -0 -0 -1 -1 -1 -1 -1 -1 -1 -0 -0 -0 -0 -0 -0 -0 -0 -0 -0 -1 -1 -1 -1 -1 -1 -1 -1 -1 -1 -1 -1 -1 -1 -1 -1 -1 -1 -1 -1 -1 -1 -1 -1 -1 -0 -0 -0 -0 -0 -0 -0 -0 -0 -0 -0 -0 -0 -0 -0 -0 -0 -0 -0 -0 -0 0 0 0 0 0 0 0 0 0 0 1 1 1
-1 -1 -1 -1 -0 -0 -0 -0 -0 -0 -0 -0 -0 -0 -0 -0 -0 -0 -0 -0 -0 -0 -0 -0 -0 -0 -1 -1 -1 -1 -1 -1 -1 -1 -1 -1 -1 -1 -1 -1 -1 -1 -1 -2 -2 -2 -2 -2 -1 -1 -1 -1 -1 -1 -1 -1 -1 -1 -1 -1 -1 -1 -1 -1 -1 -0 -0 -0 -0 -0 -0 -0 -0 -0 0 0 0 0 0 0 0 0 0 0 1 1
-1 -1 -1 -0 -0 -0 -0 -0 -0 -0 -0 -0 -0 -0 -0 -0 -0 -0 -0 -0 -0 -0 -0 -0 -1 -1 -1 -1 -1 -1 -1 -1 -1 -1 -1 -1 -1 -1 -1 -1 -1 -2 -2 -2 -2 -2 -2 -2 -2 -2 -2 -2 -1 -1 -1 -1 -1 -1 -1 -1 -1 -1 -1 -1 -1 -1 -1 -1 -1 -1 -0 -0 -0 -0 -0 0 0 0 0 0 0 0 0 0 0 1
-1 -1 -0 -0 -0 -0 -0 -0 -0 -0 -0 -0 -0 -0 -0 -0 -0 -0 -0 -0 -0 -0 -0 -1 -1 -1 -1 -1 -1 -1 -1 -1 -1 -1 -1 -1 -1 -1 -2 -2 -2 -2 -2 -2 -2 -2 -2 -2 -2 -2 -2 -2 -2 -2 -2 -2 -1 -1 -1 -1 -1 -1 -1 -1 -1 -1 -1 -1 -1 -1 -0 -0 -0 -0 -0 0 0 0 0 0 0 0 0 0 0 0
-1 -1 -1 -1 -0 -0 -0 -0 -0 -0 -0 -0 -0 -0 -0 -1 -1 -1 -1 -1 -1 -1 -1 -1 -1 -1 -1 -1 -1 -1 -1 -1 -1 -1 -1 -1 -1 -2 -2 -2 -2 -2 -2 -2 -2 -2 -3 -3 -3 -3 -2 -2 -2 -2 -2 -2 -1 -1 -1 -1 -1 -1 -1 -1 -1 -1 -1 -1 -1 -1 -1 -0 -0 -0 -0 0 0 0 0 0 0 0 0 0 0 0
-1 -1 -1 -1 -1 -1 -1 -0 -0 -0 -0 -0 -0 -1 -1 -1 -1 -1 -1 -1 -1 -1 -1 -1 -1 -1 -1 -1 -1 -1 -1 -1 -1 -1 -2 -2 -2 -2 -2 -2 -2 -2 -2 -2 -2 -2 -2 -3 -2 -2 -2 -2 -2 -2 -2 -1 -1 -1 -1 -1 -1 -1 -1 -1 -1 -1 -1 -1 -1 -1 -1 -1 -0 -0 -0 0 0 0 0 0 0 0 -0 -0 -0 0
-1 -1 -1 -1 -1 -1 -1 -1 -1 -1 -1 -1 -1 -1 -1 -1 -1 -1 -1 -1 -1 -1 -1 -1 -1 -1 -1 -1 -1 -1 -2 -2 -2 -2 -2 -2 -2 -2 -2 -2 -2 -2 -2 -2 -2 -2 -3 -3 -2 -2 -2 -2 -2 -2 -2 -1 -1 -1 -1 -1 -1 -2 -1 -1 -1 -1 -1 -1 -1 -1 -1 -1 -0 -0 -0 -0 0 0 0 0 -0 -0 -0 -0 -0 -0
-1 -1 -1 -1 -1 -1 -1 -1 -1 -1 -1 -1 -1 -1 -1 -1 -1 -1 -1 -1 -1 -1 -1 -1 -1 -1 -2 -1 -2 -2 -2 -2 -2 -2 -2 -2 -2 -2 -2 -2 -2 -2 -2 -2 -2 -2 -3 -3 -3 -3 -2 -2 -2 -2 -2 -2 -2 -2 -2 -2 -2 -2 -2 -1 -1 -1 -1 -1 -1 -1 -1 -1 -1 -0 -0 -0 -0 -0 -0 -0 -0 -0 -0 -0 -0 -0
-1 -1 -1 -1 -1 -1 -1 -1 -1 -1 -1 -1 -1 -1 -1 -1 -2 -2 -2 -2 -2 -2 -2 -2 -2 -2 -2 -2 -2 -2 -2 -2 -3 -3 -3 -3 -2 -2 -3 -3 -3 -3 -2 -3 -3 -3 -3 -3 -3 -3 -3 -3 -2 -2 -2 -2 -2 -2 -2 -2 -2 -2 -2 -2 -1 -1 -1 -1 -1 -1 -1 -1 -1 -1 -1 -1 -0 -0 -0 -0 -0 -0 -0 -0 -0 -0
-1 -1 -1 -1 -1 -1 -1 -1 -1 -1 -2 -2 -2 -2 -2 -2 -2 -2 -2 -2 -2 -2 -2 -2 -2 -2 -2 -2 -2 -2 -3 -3 -3 -3 -3 -3 -3 -3 -3 -3 -3 -3 -3 -3 -3 -3 -3 -3 -3 -3 -3 -3 -3 -3 -3 -3 -3 -3 -2 -2 -2 -2 -2 -2 -2 -2 -1 -1 -1 -1 -1 -1 -1 -1 -1 -1 -1 -1 -1 -1 -1 -1 -1 -1 -1 -1
-1 -1 -1 -1 -1 -2 -2 -2 -2 -2 -2 -2 -2 -2 -2 -2 -2 -2 -2 -2 -3 -3 -3 -3 -3 -3 -3 -2 -3 -3 -3 -3 -4 -4 -4 -4 -3 -3 -3 -3 -3 -3 -3 -3 -3 -3 -3 -3 -3 -3 -3 -3 -3 -3 -3 -3 -3 -3 -3 -2 -2 -2 -2 -2 -2 -2 -2 -1 -1 -1 -1 -1 -1 -1 -1 -1 -1 -1 -1 -1 -1 -1 -1 -1 -1 -1
-1 -1 -1 -2 -2 -2 -2 -2 -2 -2 -2 -2 -2 -2 -2 -3 -3 -3 -3 -3 -3 -3 -3 -3 -3 -3 -3 -3 -3 -4 -4 -4 -4 -5 -5 -5 -4 -4 -3 -4 -4 -3 -3 -3 -3 -3 -3 -3 -3 -3 -3 -3 -3 -2 -2 -2 -2 -2 -2 -2 -2 -2 -2 -2 -2 -2 -2 -2 -1 -1 -1 -1 -1 -1 -1 -1 -1 -1 -1 -1 -1 -1 -1 -1 -1 -1
-2 -2 -2 -2 -2 -2 -2 -2 -2 -2 -2 -3 -2 -3 -3 -3 -3 -3 -3 -3 -3 -3 -4 -4 -4 -4 -4 -4 -4 -4 -5 -5 -5 -5 -5 -5 -5 -4 -4 -4 -4 -4 -4 -4 -4 -4 -4 -3 -3 -3 -3 -3 -2 -2 -2 -2 -2 -2 -2 -2 -2 -2 -2 -2 -2 -2 -2 -2 -2 -2 -2 -2 -2 -2 -1 -1 -1 -1 -1 -1 -1 -1 -1 -1 -1 -1
-2 -2 -2 -2 -2 -3 -3 -3 -3 -3 -3 -3 -3 -3 -3 -3 -3 -3 -3 -3 -3 -4 -4 -4 -4 -4 -4 -5 -5 -5 -5 -5 -5 -5 -5 -5 -5 -4 -4 -4 -4 -4 -4 -4 -4 -4 -4 -3 -3 -3 -3 -2 -2 -2 -2 -2 -2 -2 -2 -2 -2 -2 -2 -2 -2 -2 -2 -2 -2 -2 -2 -2 -2 -2 -2 -2 -2 -2 -2 -2 -2 -2 -1 -1 -1 -1
-2 -3 -3 -3 -3 -3 -3 -3 -3 -3 -3 -3 -3 -3 -3 -3 -3 -3 -3 -4 -4 -4 -4 -4 -4 -5 -5 -5 -5 -5 -5 -5 -5 -5 -6 -5 -5 -4 -4 -5 -5 -4 -4 -4 -4 -4 -4 -3 -3 -3 -2 -2 -2 -2 -2 -1 -1 -1 -1 -2 -2 -2 -2 -2 -2 -2 -2 -2 -2 -2 -2 -2 -2 -2 -2 -2 -2 -2 -2 -2 -2 -2 -2 -2 -2 -2
-3 -3 -3 -3 -3 -3 -3 -3 -3 -3 -3 -3 -3 -3 -3 -3 -4 -4 -4 -4 -4 -4 -4 -5 -5 -5 -5 -5 -5 -5 -5 -5 -6 -6 -6 -5 -5 -4 -5 -5 -5 -5 -5 -5 -4 -4 -3 -3 -2 -2 -2 -2 -2 -1 -1 -1 -1 -1 -2 -2 -2 -2 -2 -2 -2 -2 -2 -2 -2 -2 -2 -2 -2 -2 -2 -2 -2 -2 -2 -2 -2 -2 -2 -2 -2 -2
-3 -3 -3 -3 -3 -3 -3 -3 -3 -3 -3 -3 -3 -3 -3 -4 -4 -4 -4 -4 -4 -4 -5 -5 -5 -5 -5 -5 -5 -6 -5 -5 -6 -6 -6 -5 -5 -5 -5 -5 -5 -5 -5 -5 -5 -4 -3 -3 -2 -2 -2 -2 -1 -1 -1 -1 -2 -2 -2 -2 -2 -2 -2 -2 -3 -3 -3 -3 -3 -3 -3 -3 -3 -3 -3 -3 -3 -2 -2 -2 -2 -2 -2 -2 -2 -2
-4 -4 -4 -4 -4 -4 -4 -4 -3 -3 -3 -3 -3 -3 -3 -3 -3 -4 -4 -4 -4 -4 -4 -5 -5 -5 -5 -5 -6 -6 -6 -6 -6 -6 -6 -6 -6 -6 -6 -6 -6 -6 -6 -5 -5 -4 -3 -2 -2 -2 -2 -2 -2 -2 -2 -2 -2 -3 -3 -3 -3 -3 -3 -3 -3 -3 -3 -3 -3 -3 -3 -3 -3 -3 -3 -3 -3 -3 -3 -3 -2 -2 -2 -2 -2 -2
-4 -4 -4 -4 -4 -4 -4 -4 -4 -4 -4 -4 -4 -4 -4 -4 -4 -4 -4 -4 -4 -4 -4 -5 -5 -5 -5 -5 -6 -6 -6 -6 -6 -6 -6 -6 -6 -6 -6 -6 -6 -6 -6 -6 -5 -4 -4 -3 -2 -2 -3 -3 -3 -3 -3 -3 -3 -3 -3 -3 -3 -3 -3 -3 -3 -3 -3 -3 -3 -3 -3 -3 -3 -3 -3 -3 -3 -3 -3 -3 -3 -3 -3 -2 -2 -2
-4 -4 -4 -4 -4 -4 -4 -4 -4 -4 -4 -4 -4 -4 -4 -4 -4 -4 -4 -4 -4 -4 -5 -5 -5 -5 -5 -5 -6 -6 -6 -6 -6 -6 -6 -6 -6 -6 -6 -6 -6 -7 -7 -6 -5 -5 -4 -3 -3 -3 -4 -4 -4 -4 -4 -4 -4 -4 -4 -3 -3 -3 -3 -3 -3 -3 -3 -3 -3 -3 -3 -3 -3 -3 -3 -3 -3 -3 -3 -3 -3 -3 -3 -3 -3 -3
-4 -4 -4 -4 -4 -4 -5 -5 -4 -4 -4 -4 -4 -4 -4 -4 -4 -4 -4 -4 -4 -4 -5 -5 -5 -5 -5 -5 -5 -6 -6 -6 -6 -6 -6 -6 -6 -6 -6 -6 -7 -7 -7 -7 -6 -5 -4 -4 -4 -4 -4 -4 -4 -4 -4 -4 -4 -3 -3 -3 -3 -3 -3 -3 -3 -3 -3 -3 -4 -4 -4 -4 -4 -4 -3 -3 -3 -3 -3 -3 -3 -3 -3 -3 -3 -3
-4 -4 -4 -4 -4 -5 -5 -5 -5 -5 -5 -5 -5 -5 -5 -5 -5 -5 -5 -5 -5 -5 -5 -5 -5 -5 -5 -5 -6 -6 -6 -6 -6 -6 -7 -7 -6 -6 -7 -7 -7 -7 -7 -7 -6 -5 -4 -4 -5 -5 -5 -5 -5 -4 -4 -4 -3 -3 -3 -3 -3 -3 -3 -3 -3 -3 -3 -4 -4 -4 -4 -4 -4 -4 -4 -4 -4 -3 -3 -3 -3 -3 -3 -3 -3 -3
-5 -5 -5 -5 -5 -5 -5 -5 -5 -5 -5 -5 -5 -5 -5 -5 -5 -5 -5 -5 -5 -5 -5 -5 -5 -5 -5 -5 -5 -6 -6 -5 -6 -6 -7 -7 -7 -7 -7 -7 -7 -7 -7 -7 -7 -7 -6 -5 -5 -5 -5 -5 -4 -4 -4 -3 -3 -3 -3 -3 -3 -3 -3 -3 -3 -3 -3 -4 -4 -4 -4 -4 -4 -4 -4 -4 -4 -4 -4 -4 -4 -3 -3 -3 -4 -4
-5 -5 -5 -5 -5 -5 -5 -5 -5 -5 -5 -5 -5 -5 -5 -5 -5 -5 -5 -5 -5 -5 -5 -5 -5 -5 -5 -5 -6 -6 -6 -5 -6 -6 -7 -7 -7 -7 -7 -7 -7 -7 -7 -7 -8 -8 -7 -6 -5 -5 -5 -5 -4 -4 -3 -3 -3 -3 -3 -3 -3 -3 -3 -3 -3 -3 -3 -4 -4 -4 -4 -4 -4 -4 -4 -4 -4 -4 -4 -4 -4 -4 -4 -4 -4 -4
-5 -5 -5 -5 -5 -5 -5 -5 -5 -5 -5 -5 -5 -5 -5 -5 -5 -5 -5 -5 -5 -5 -5 -5 -5 -5 -5 -5 -6 -6 -6 -6 -6 -6 -7 -7 -7 -7 -7 -7 -7 -7 -7 -7 -8 -8 -8 -7 -6 -6 -5 -5 -5 -4 -4 -4 -4 -4 -4 -4 -4 -3 -3 -4 -4 -4 -4 -4 -4 -4 -4 -4 -4 -4 -4 -4 -4 -4 -4 -4 -4 -4 -4 -4 -4 -5
-5 -5 -5 -5 -5 -5 -5 -5 -5 -6 -6 -6 -6 -5 -5 -5 -5 -5 -5 -5 -5 -5 -5 -5 -5 -6 -6 -6 -6 -6 -6 -6 -6 -6 -7 -7 -7 -7 -7 -7 -7 -7 -7 -7 -7 -8 -8 -7 -7 -7 -7 -7 -6 -6 -5 -5 -4 -4 -4 -4 -4 -4 -4 -4 -4 -4 -4 -4 -4 -4 -4 -4 -4 -4 -4 -4 -4 -4 -4 -4 -4 -4 -4 -4 -4 -4
-6 -6 -6 -5 -5 -5 -5 -5 -6 -6 -6 -6 -6 -6 -6 -6 -6 -6 -6 -6 -6 -6 -6 -6 -6 -6 -6 -6 -6 -6 -6 -6 -6 -7 -7 -7 -7 -7 -7 -7 -7 -7 -7 -7 -7 -7 -7 -7 -7 -7 -7 -7 -7 -7 -6 -6 -5 -5 -5 -5 -5 -5 -5 -5 -5 -5 -5 -4 -4 -4 -4 -4 -4 -4 -4 -4 -4 -4 -4 -4 -4 -4 -4 -4 -4 -4
-6 -6 -5 -5 -5 -5 -6 -6 -6 -6 -6 -6 -6 -6 -6 -6 -6 -6 -6 -6 -6 -6 -6 -6 -6 -6 -6 -6 -6 -6 -6 -7 -7 -7 -7 -7 -7 -7 -7 -7 -7 -7 -7 -7 -7 -7 -7 -7 -7 -7 -7 -7 -7 -7 -7 -6 -6 -6 -6 -6 -6 -5 -5 -5 -5 -5 -5 -5 -5 -5 -5 -5 -5 -5 -5 -5 -5 -5 -4 -5 -5 -5 -4 -4 -4 -4
-6 -6 -6 -6 -6 -6 -6 -6 -6 -6 -6 -6 -6 -6 -6 -6 -6 -7 -7 -7 -7 -7 -7 -7 -7 -7 -7 -7 -7 -7 -7 -7 -7 -7 -7 -7 -7 -7 -7 -7 -7 -7 -8 -8 -8 -7 -7 -7 -7 -7 -7 -7 -7 -7 -7 -7 -6 -6 -6 -6 -6 -6 -6 -6 -5 -5 -5 -5 -5 -5 -5 -5 -5 -5 -5 -5 -5 -5 -5 -5 -5 -5 -5 -5 -5 -5
-6 -6 -6 -6 -6 -6 -6 -7 -7 -6 -6 -6 -7 -7 -7 -7 -7 -7 -7 -7 -7 -7 -7 -7 -7 -7 -7 -7 -7 -7 -7 -7 -7 -7 -8 -8 -8 -8 -8 -8 -8 -8 -8 -8 -7 -7 -7 -7 -7 -7 -7 -7 -7 -7 -7 -7 -7 -7 -7 -7 -7 -6 -6 -6 -6 -6 -6 -6 -6 -5 -5 -5 -5 -5 -5 -5 -5 -5 -5 -5 -5 -5 -5 -5 -5 -5
-6 -6 -6 -6 -6 -7 -7 -7 -7 -7 -7 -7 -7 -7 -7 -7 -7 -7 -7 -7 -7 -7 -7 -7 -7 -7 -7 -7 -7 -7 -7 -7 -8 -8 -8 -8 -8 -8 -8 -8 -8 -8 -8 -7 -7 -7 -7 -7 -7 -7 -7 -7 -7 -7 -7 -7 -7 -7 -7 -7 -7 -7 -6 -6 -6 -6 -6 -6 -6 -6 -6 -6 -5 -5 -5 -5 -5 -5 -5 -5 -5 -5 -5 -5 -5 -5
-7 -7 -7 -7 -7 -7 -7 -7 -7 -7 -7 -8 -8 -8 -8 -8 -8 -8 -8 -8 -7 -7 -7 -7 -7 -7 -7 -7 -7 -7 -8 -8 -8 -8 -8 -7 -7 -7 -7 -7 -7 -7 -7 -7 -7 -7 -7 -7 -7 -7 -7 -7 -7 -7 -7 -7 -7 -7 -7 -7 -7 -6 -6 -6 -6 -6 -6 -6 -6 -6 -6 -6 -6 -6 -6 -6 -5 -5 -5 -5 -5 -5 -5 -5 -5 -5
-7 -7 -7 -7 -7 -7 -7 -7 -8 -8 -8 -8 -8 -8 -8 -8 -8 -8 -8 -8 -8 -8 -8 -8 -7 -7 -7 -7 -7 -8 -8 -8 -8 -7 -7 -7 -7 -7 -7 -7 -7 -7 -7 -7 -7 -7 -7 -7 -7 -7 -7 -7 -7 -7 -7 -7 -7 -7 -7 -6 -6 -6 -6 -6 -6 -6 -6 -6 -6 -6 -6 -6 -6 -6 -6 -6 -6 -6 -5 -5 -5 -5 -5 -5 -5 -5
-8 -8 -7 -7 -7 -7 -7 -8 -8 -8 -8 -8 -8 -8 -8 -8 -8 -8 -8 -8 -7 -7 -7 -7 -7 -7 -7 -7 -7 -7 -7 -7 -7 -7 -7 -7 -7 -7 -7 -7 -7 -7 -7 -7 -7 -7 -7 -7 -7 -7 -7 -7 -7 -7 -7 -7 -7 -7 -7 -6 -6 -6 -6 -6 -6 -6 -6 -6 -6 -6 -6 -6 -6 -6 -6 -6 -6 -6 -6 -6 -6 -5 -5 -5 -5 -5
-8 -8 -7 -7 -7 -7 -8 -8 -8 -8 -8 -8 -8 -8 -8 -8 -8 -8 -8 -8 -8 -7 -7 -7 -7 -7 -7 -7 -7 -7 -7 -7 -7 -7 -7 -7 -7 -7 -7 -7 -7 -7 -7 -7 -7 -7 -7 -7 -7 -7 -7 -7 -7 -7 -7 -7 -7 -7 -7 -7 -6 -6 -6 -6 -6 -6 -6 -6 -6 -6 -6 -6 -6 -6 -6 -6 -6 -6 -6 -6 -6 -6 -6 -6 -6 -6
-8 -8 -8 -8 -7 -8 -8 -8 -8 -8 -8 -8 -8 -8 -8 -8 -8 -8 -8 -8 -8 -8 -7 -7 -7 -7 -7 -8 -8 -7 -7 -7 -7 -7 -7 -7 -7 -7 -7 -7 -7 -7 -7 -7 -7 -7 -7 -7 -7 -7 -7 -7 -7 -7 -7 -7 -7 -7 -7 -7 -6 -6 -6 -6 -6 -6 -6 -6 -6 -6 -6 -6 -6 -6 -6 -6 -6 -6 -6 -6 -6 -6 -6 -6 -5 -5
-8 -8 -8 -8 -8 -8 -8 -8 -8 -8 -8 -8 -8 -8 -8 -8 -8 -8 -8 -8 -8 -8 -7 -7 -7 -8 -8 -8 -8 -8 -8 -8 -8 -7 -7 -7 -7 -7 -7 -7 -7 -7 -7 -7 -7 -7 -7 -7 -7 -7 -7 -7 -7 -7 -7 -7 -7 -7 -7 -7 -6 -6 -6 -6 -6 -6 -6 -6 -6 -6 -6 -6 -6 -6 -6 -6 -6 -6 -6 -6 -6 -5 -5 -5 -5 -5
-8 -8 -8 -8 -8 -8 -8 -8 -8 -8 -8 -8 -9 -9 -8 -8 -8 -8 -8 -8 -8 -8 -7 -7 -7 -8 -8 -8 -7 -7 -7 -7 -7 -7 -7 -7 -7 -7 -7 -7 -7 -7 -7 -7 -7 -7 -7 -7 -7 -7 -7 -7 -7 -7 -7 -7 -7 -7 -7 -6 -6 -6 -6 -6 -6 -6 -6 -6 -6 -6 -6 -6 -6 -6 -6 -6 -6 -6 -6 -6 -5 -5 -5 -5 -5 -5
-8 -8 -8 -8 -8 -8 -8 -8 -9 -9 -9 -9 -9 -9 -9 -9 -9 -8 -8 -8 -8 -8 -8 -7 -8 -8 -7 -7 -7 -7 -7 -7 -7 -7 -7 -7 -7 -7 -7 -7 -7 -7 -7 -7 -7 -7 -7 -7 -7 -7 -7 -7 -7 -7 -7 -7 -7 -7 -7 -6 -6 -6 -6 -6 -6 -6 -6 -6 -6 -6 -6 -6 -6 -6 -6 -6 -6 -6 -5 -5 -5 -5 -5 -5 -5 -5
-8 -8 -8 -9 -9 -9 -9 -9 -9 -9 -9 -9 -9 -9 -9 -9 -9 -8 -8 -8 -8 -8 -8 -8 -8 -7 -7 -7 -7 -7 -7 -7 -7 -7 -7 -7 -7 -7 -7 -7 -7 -7 -6 -6 -6 -6 -6 -6 -7 -7 -7 -7 -7 -7 -7 -7 -7 -7 -6 -6 -6 -6 -6 -6 -6 -6 -6 -6 -6 -6 -6 -6 -6 -6 -6 -6 -5 -5 -5 -5 -5 -5 -5 -5 -5 -5
-8 -9 -9 -9 -9 -9 -9 -9 -9 -9 -9 -9 -9 -9 -9 -9 -9 -9 -8 -8 -8 -8 -8 -8 -8 -8 -8 -7 -7 -7 -7 -7 -7 -7 -7 -7 -7 -7 -7 -7 -7 -7 -7 -6 -6 -6 -6 -6 -6 -6 -7 -7 -7 -7 -7 -7 -7 -7 -6 -6 -6 -6 -6 -6 -6 -6 -6 -6 -6 -6 -6 -6 -6 -6 -5 -5 -5 -5 -5 -5 -5 -5 -5 -5 -5 -5
-9 -9 -9 -9 -9 -9 -9 -9 -10 -10 -10 -10 -10 -9 -9 -9 -9 -9 -8 -8 -8 -8 -8 -8 -8 -8 -8 -7 -7 -7 -7 -7 -7 -7 -7 -7 -7 -7 -7 -7 -7 -7 -7 -7 -6 -6 -6 -6 -6 -6 -6 -7 -7 -7 -7 -7 -7 -7 -7 -6 -6 -6 -6 -6 -6 -6 -6 -6 -5 -5 -5 -5 -5 -5 -5 -6 -5 -5 -5 -5 -5 -5 -5 -5 -5 -5
-9 -9 -9 -9 -9 -10 -10 -10 -10 -10 -10 -10 -10 -10 -9 -9 -9 -9 -9 -9 -8 -8 -8 -8 -8 -8 -8 -7 -7 -7 -7 -7 -7 -7 -7 -7 -7 -7 -7 -7 -7 -7 -7 -7 -7 -7 -6 -6 -6 -6 -6 -6 -6 -7 -7 -7 -7 -7 -7 -6 -6 -6 -6 -6 -6 -6 -6 -6 -5 -5 -5 -5 -5 -5 -5 -5 -5 -5 -5 -5 -5 -5 -5 -5 -5 -5
-9 -9 -9 -10 -10 -10 -10 -10 -10 -10 -10 -10 -10 -10 -9 -9 -9 -9 -9 -9 -9 -9 -8 -8 -8 -8 -8 -7 -7 -7 -7 -7 -7 -7 -7 -7 -7 -7 -7 -7 -7 -7 -7 -7 -7 -6 -6 -6 -6 -6 -6 -6 -6 -6 -6 -6 -6 -6 -6 -6 -6 -6 -6 -6 -6 -6 -6 -5 -5 -5 -5 -5 -5 -5 -5 -5 -5 -5 -5 -5 -5 -5 -5 -5 -5 -5
Height
823 823 823 823 823 823 824 824 824 824 824 824 824 824 825 825 825 825 825 825 825 825 825 825 825 826 826 826 826 826 827 827 827 827 827 828 828 829 829 829 830 830 830 830 830 830 830 830 830 830 830 830 830 830 830 830 830 830 830 830 830 830 830 830 830 830 829 829 829 829 829 829 829 829 829 829 829 829 829 829 829 829 830 830 830 830
823 823 823 823 823 823 824 824 824 824 824 824 824 824 825 825 825 825 825 825 825 825 825 825 825 825 825 825 826 826 826 826 826 827 827 828 828 829 829 829 829 829 830 830 830 830 830 830 830 829 829 829 829 829 829 829 829 829 829 829 829 829 829 829 829 829 828 828 828 828 828 828 828 828 828 828 828 828 828 828 829 829 829 829 830 830
823 823 823 823 823 823 823 824 824 824 824 824 824 824 824 824 824 824 824 824 824 824 824 824 824 825 825 825 825 825 825 826 826 827 827 828 828 829 829 829 829 829 830 830 830 829 829 829 829 829 829 829 828 828 828 828 828 828 828 828 828 828 828 828 828 827 827 827 827 827 827 827 827 827 827 827 827 827 828 828 828 828 828 829 829 829
823 823 823 823 823 823 823 823 823 824 824 824 824 824 824 824 824 824 824 824 824 824 824 824 824 824 824 824 825 825 825 826 826 827 827 828 828 829 829 829 829 829 829 829 829 828 828 828 828 828 828 828 827 827 827 827 827 827 827 827 827 827 827 827 827 826 826 826 826 826 826 826 826 827 827 827 827 827 827 827 827 827 827 828 828 828
822 823 823 823 823 823 823 823 823 823 823 823 823 823 823 823 823 823 824 824 824 824 824 824 824 824 825 825 825 825 825 826 826 827 827 828 828 828 828 828 828 828 828 828 828 827 827 827 827 827 827 827 827 827 826 826 826 826 826 826 826 826 826 826 826 826 825 825 825 825 825 826 826 826 826 826 826 826 826 826 826 826 827 827 827 827
822 823 823 823 823 823 823 823 823 823 823 823 823 823 824 824 824 824 824 824 824 824 825 825 825 825 825 825 825 825 825 826 826 827 827 827 827 827 827 827 827 827 827 827 827 827 826 826 826 826 826 826 825 825 825 825 825 825 825 825 825 825 825 825 825 825 824 824 824 825 825 825 825 825 825 825 825 825 825 826 826 826 826 826 826 827
823 823 823 823 823 823 823 823 823 823 823 824 824 824 824 824 824 825 825 825 825 825 825 825 825 825 825 825 825 825 825 826 826 826 826 826 826 827 827 827 826 826 826 826 826 825 825 825 825 825 825 824 824 824 824 824 824 824 824 824 824 824 824 824 824 824 824 824 824 824 824 824 824 824 824 824 824 825 825 825 825 825 825 825 826 826
823 823 823 823 823 823 824 824 824 824 824 824 825 825 825 825 825 825 825 825 825 825 825 825 825 825 825 825 825 825 826 826 826 826 826 826 826 826 826 826 825 825 825 825 824 824 824 824 824 824 823 823 823 823 824 823 823 823 823 823 823 823 823 823 823 823 823 823 823 823 823 823 823 823 823 824 824 824 824 824 824 824 824 824 825 825
823 823 824 824 824 824 824 824 824 825 825 825 825 825 825 826 826 826 826 825 825 825 825 825 825 825 825 825 825 825 826 826 826 826 826 826 825 825 825 825 825 824 824 824 823 823 823 823 823 822 822 822 822 823 823 823 822 822 822 822 822 822 822 822 822 822 822 822 822 822 822 822 822 822 823 823 823 823 823 823 823 823 823 824 824 824
824 824 824 824 824 824 825 825 825 825 825 825 826 826 826 826 826 826 826 825 825 825 825 825 825 825 825 825 825 825 825 825 825 825 825 825 825 825 824 824 824 823 823 822 822 822 822 822 822 822 822 822 822 822 822 822 822 821 821 821 821 821 821 821 821 821 821 821 821 821 821 822 822 822 822 822 822 822 822 822 822 822 823 823 823 823
824 824 825 825 825 825 825 825 825 826 826 826 826 826 826 826 826 826 826 825 825 825 825 825 825 825 825 825 825 825 825 825 825 825 825 825 824 824 824 823 823 822 822 822 821 821 821 820 820 820 820 821 821 820 820 820 820 820 820 820 820 820 820 820 820 820 820 820 820 820 821 821 821 821 821 821 821 822 822 822 822 822 822 822 822 822
825 825 825 825 825 825 826 826 826 826 826 826 826 826 826 826 826 826 826 825 825 825 825 825 825 825 825 825 825 825 825 825 824 824 824 824 823 823 823 822 822 822 821 821 820 820 819 819 819 819 819 819 819 819 819 819 819 819 819 819 819 819 819 819 819 819 819 819 819 819 820 820 820 820 820 820 821 821 821 821 821 821 821 821 821 821
825 825 825 825 826 826 826 826 826 826 826 826 826 826 826 826 826 826 826 826 826 825 825 825 825 825 825 825 825 825 824 824 824 823 823 823 822 822 822 821 821 820 820 819 819 818 818 818 818 818 818 817 817 818 818 818 818 818 818 818 818 818 818 818 818 818 818 818 818 818 819 819 819 819 819 819 820 820 820 820 820 820 820 820 820 820
825 825 826 826 826 826 826 826 826 826 826 826 826 826 826 826 826 826 826 826 826 826 826 825 825 825 825 825 824 824 824 823 823 822 822 822 822 821 821 820 819 818 818 818 817 817 817 817 817 817 817 816 816 817 817 817 817 817 817 817 817 817 817 817 817 817 817 817 817 817 818 818 818 818 818 818 818 819 819 819 819 819 818 819 819 819
826 826 826 826 826 826 826 826 826 826 827 827 827 827 826 826 826 826 826 826 826 826 825 825 825 825 825 824 824 824 823 822 822 821 821 821 821 820 820 818 818 817 817 817 816 816 816 816 816 815 815 815 815 815 815 815 815 816 816 816 816 816 816 816 816 816 816 817 817 817 817 817 817 817 817 817 817 817 817 817 817 817 817 817 817 817
826 826 826 826 826 826 826 827 827 827 827 827 827 827 827 827 826 826 826 826 826 826 825 825 825 825 824 824 824 823 823 822 821 821 820 819 819 819 819 817 817 816 816 816 815 815 815 815 815 815 815 815 815 815 815 815 815 815 815 815 815 815 815 815 815 815 815 816 816 816 816 816 816 816 816 816 816 816 816 816 816 816 816 816 816 816
826 826 826 826 826 826 827 827 827 827 827 827 827 827 827 827 827 826 826 826 826 826 825 825 825 824 824 823 823 823 822 822 821 820 819 818 818 818 818 817 816 815 815 815 815 815 814 814 814 814 814 814 814 814 814 814 814 814 814 814 814 814 814 814 814 814 815 815 815 815 815 815 815 815 815 815 815 815 815 815 815 815 815 815 815 815
826 826 826 826 826 827 827 827 827 827 827 827 827 827 827 827 826 826 826 826 826 826 826 825 825 825 824 823 823 823 822 821 820 819 818 817 817 817 817 816 815 814 814 814 814 814 814 814 813 813 813 813 813 813 813 813 813 813 813 813 813 813 813 813 813 813 813 814 814 814 814 814 814 814 814 814 813 813 813 813 813 813 813 813 813 813
826 826 826 826 826 827 827 827 827 827 827 827 827 827 826 826 826 826 826 826 826 826 825 825 825 824 824 823 823 822 822 821 820 819 817 816 816 815 815 815 814 814 814 814 813 813 813 813 813 812 812 812 812 812 812 812 812 812 812 812 812 812 812 812 812 812 812 812 812 812 812 812 812 812 812 812 812 812 812 812 812 812 812 812 812 812
826 826 826 826 826 827 827 827 827 827 827 827 826 826 826 826 826 826 825 825 825 825 825 824 824 824 823 823 822 822 821 820 819 818 817 816 815 815 815 814 814 813 813 813 813 812 812 812 812 812 812 811 811 811 811 811 810 810 811 811 811 811 811 811 811 811 811 811 811 811 811 811 811 811 811 811 810 810 810 810 810 810 810 810 810 810
826 826 826 826 826 826 826 826 826 826 826 826 826 826 826 825 825 825 825 825 824 824 824 824 823 823 822 822 822 821 820 820 819 818 817 815 814 814 814 814 813 813 812 812 812 812 811 811 811 811 810 810 810 809 809 809 809 809 809 809 809 810 810 810 810 810 810 810 810 810 810 810 809 809 809 809 809 809 809 809 809 809 809 809 809 809
826 826 826 826 826 826 826 826 826 826 826 826 826 825 825 825 825 824 824 824 824 823 823 823 822 822 822 821 821 820 820 819 818 817 816 815 814 813 813 813 812 812 812 811 811 810 810 810 810 809 809 809 808 808 808 808 808 808 808 808 808 808 809 809 809 809 809 809 809 809 808 808 808 808 808 807 807 807 807 807 807 807 807 807 807 807
826 826 826 826 826 826 826 826 826 826 826 825 825 825 825 824 824 824 823 823 823 823 822 822 822 821 821 820 820 819 819 818 818 817 816 815 813 813 813 812 812 811 811 810 809 809 808 808 808 808 807 807 807 807 807 807 807 807 807 807 807 807 808 808 808 808 808 808 807 807 807 807 807 807 807 806 806 806 806 806 806 806 806 806 806 806
826 826 826 826 826 826 826 826 826 825 825 825 824 824 824 823 823 823 822 822 822 822 822 821 821 820 820 819 819 819 818 818 817 817 816 815 813 812 812 812 811 810 809 809 808 807 807 807 807 807 806 806 805 805 805 805 806 806 806 806 807 807 807 807 807 807 807 806 806 806 806 805 805 805 805 805 805 805 805 805 805 805 804 804 804 804
825 825 825 825 825 825 825 825 825 825 824 824 823 823 823 822 822 822 822 822 821 821 821 821 820 819 819 819 818 818 817 817 817 816 816 814 813 812 812 812 811 809 808 807 807 807 806 805 805 805 804 804 804 804 804 804 805 805 805 806 806 806 806 806 805 805 805 805 805 804 804 804 804 804 804 804 804 804 804 804 803 803 803 803 803 803
825 825 825 825 825 825 825 824 824 824 823 823 823 822 822 822 821 821 821 821 821 820 820 820 819 819 818 818 818 817 817 817 816 816 815 814 813 812 812 811 810 809 807 806 805 805 804 804 803 803 803 803 803 803 803 803 804 804 805 805 805 804 804 804 804 804 804 803 803 803 803 803 803 803 803 803 803 803 803 802 802 802 802 802 802 802
825 825 825 824 824 824 823 823 822 822 822 822 822 822 821 820 820 820 820 820 820 820 820 819 819 818 817 817 817 817 816 816 815 815 814 814 813 812 812 811 810 809 807 805 804 804 803 803 802 802 802 802 802 802 802 803 803 803 803 803 803 803 803 803 803 803 802 802 802 802 802 802 802 802 802 802 802 802 802 801 801 801 801 801 800 800
824 824 824 823 823 822 822 822 821 821 820 820 820 821 820 819 819 819 819 819 819 819 819 818 818 818 817 817 816 816 816 815 815 814 814 813 813 812 812 811 810 809 807 805 803 802 802 802 802 802 802 802 802 802 802 802 802 802 802 802 802 802 802 802 802 802 801 801 801 801 801 801 801 801 801 801 800 800 800 800 800 800 799 799 798 798
823 823 823 822 822 822 821 820 820 819 819 818 819 819 819 818 818 818 818 818 818 818 818 817 817 817 817 816 816 815 815 815 814 814 813 813 812 812 812 811 810 809 808 805 803 802 801 801 801 801 801 801 801 802 802 802 802 802 802 802 802 802 801 801 801 801 800 800 800 800 800 800 799 799 799 799 799 799 798 798 798 798 797 797 796 796
822 822 822 822 821 821 820 819 819 818 818 817 817 817 817 817 817 817 817 817 817 817 817 816 816 816 816 816 815 815 814 814 813 813 813 813 812 812 811 811 810 810 809 807 805 802 801 801 801 801 801 801 801 801 802 802 802 802 801 801 801 800 800 800 800 799 799 799 799 798 798 798 798 797 797 797 797 797 797 797 797 796 796 795 794 794
822 821 821 821 820 820 819 818 818 817 817 817 817 817 817 817 817 817 816 816 816 816 816 816 815 815 815 815 815 815 814 813 813 813 812 812 812 811 811 811 810 810 810 809 808 806 804 801 801 801 801 801 801 801 801 801 801 801 800 800 799 799 799 799 799 798 798 797 797 797 797 796 796 796 796 796 795 795 795 795 795 795 794 793 792 792
821 820 820 820 819 819 818 818 817 817 816 816 816 816 816 816 816 816 816 816 815 815 815 815 815 815 815 815 815 814 814 813 813 813 812 812 812 811 811 811 810 810 810 810 810 810 807 804 801 800 800 800 800 800 800 800 800 799 799 798 798 798 798 798 797 797 796 796 796 795 795 795 795 794 794 794 794 793 793 793 793 793 792 791 791 790
820 820 819 819 818 818 817 817 817 816 816 816 816 816 816 815 815 815 815 815 815 815 814 814 814 814 814 814 814 813 813 813 813 813 813 812 811 811 810 810 810 810 809 809 810 809 809 806 803 801 800 800 799 799 799 799 799 798 798 798 797 797 797 797 796 796 795 794 794 794 794 793 793 793 792 792 792 792 791 791 791 791 791 790 789 789
819 819 818 818 817 817 816 816 816 816 816 815 815 815 815 815 815 815 815 814 814 814 814 814 813 813 813 813 812 812 812 812 812 812 812 812 811 810 810 809 809 809 809 808 808 808 807 806 804 802 800 799 798 798 798 798 798 797 797 797 797 796 796 795 795 794 794 793 793 792 792 792 792 791 791 791 790 790 790 789 789 789 789 789 788 788
818 817 817 817 816 816 815 815 815 815 815 815 815 815 815 815 815 814 814 814 814 814 813 813 813 813 812 812 812 811 811 811 811 812 811 811 811 810 809 809 808 808 808 808 807 807 806 805 804 803 801 799 798 797 797 797 797 797 797 796 796 795 795 794 793 793 792 792 792 791 791 791 790 790 789 789 788 788 788 788 788 788 788 787 787 787
816 816 816 815 815 814 814 814 814 814 814 814 814 814 814 814 814 814 814 813 813 813 813 812 812 812 812 811 811 810 810 810 810 810 810 810 810 809 808 808 807 808 807 807 807 806 805 804 803 802 802 800 798 797 796 796 796 796 796 795 795 794 793 793 792 792 791 791 790 790 789 789 789 788 788 787 787 787 787 786 786 786 786 785 785 785
815 815 814 814 814 813 813 813 814 814 814 814 814 814 813 813 813 813 813 813 812 812 812 812 811 811 811 810 810 809 809 808 808 808 809 808 808 808 807 807 807 807 807 806 806 805 805 804 802 802 801 800 798 797 796 795 795 795 794 794 793 793 792 792 791 791 790 789 789 788 788 788 787 787 786 786 786 785 785 785 784 784 783 783 783 782
814 814 813 813 813 813 813 813 813 813 813 813 813 813 812 812 812 812 812 812 811 811 811 810 810 810 809 809 808 808 807 807 807 807 807 807 807 807 806 806 805 805 806 805 805 805 804 803 802 801 800 799 798 797 796 795 794 793 793 792 792 792 791 790 790 790 789 788 788 787 787 786 786 785 785 784 784 783 783 782 782 782 782 781 781 780
813 813 812 812 812 812 812 812 812 812 812 812 812 811 811 811 811 811 811 810 810 810 809 809 809 808 808 808 807 807 807 806 806 806 806 805 805 805 805 804 804 804 804 804 804 804 803 803 802 801 799 798 797 796 795 795 794 793 792 791 790 790 790 789 789 788 788 787 787 786 785 785 785 784 783 783 782 782 781 781 780 780 779 779 778 777
812 812 812 812 812 812 812 812 811 811 811 811 810 810 810 810 810 810 809 809 809 809 808 808 807 807 807 807 806 806 805 805 804 804 804 804 804 804 803 803 803 803 803 803 803 802 802 802 801 800 799 798 797 795 794 794 793 792 792 790 789 788 788 788 787 787 786 786 785 785 784 784 783 783 782 782 781 780 780 779 778 778 778 777 777 775
812 812 812 812 811 811 811 811 811 810 810 810 810 809 809 809 809 808 808 808 808 807 807 807 807 806 806 805 805 804 804 803 803 803 802 802 802 802 802 802 802 802 802 802 801 801 801 800 800 799 798 797 796 795 794 793 792 792 792 790 789 787 786 786 786 786 785 785 784 784 783 782 782 781 780 780 779 779 778 778 777 776 776 775 775 774
811 811 811 811 811 811 811 810 810 809 809 809 809 808 808 808 807 807 807 807 807 807 807 806 806 805 804 804 803 803 802 802 802 802 801 801 801 801 801 801 800 800 800 800 800 799 799 799 798 798 797 797 796 794 792 792 791 791 791 790 788 786 785 784 784 784 784 783 783 782 782 781 780 779 779 778 777 777 777 776 775 775 774 773 773 772
810 810 810 810 810 810 810 809 809 809 809 808 808 808 807 807 807 807 806 806 806 806 806 806 805 804 803 802 802 802 801 801 801 800 800 800 800 800 800 799 799 799 799 799 798 798 797 797 797 797 796 796 795 794 792 790 790 789 789 788 788 787 784 782 782 782 782 782 781 781 780 779 779 778 777 777 776 775 774 774 773 773 772 772 771 771
809 809 809 809 809 809 809 809 809 808 808 807 807 807 807 806 806 806 806 805 805 805 805 805 804 804 803 802 801 801 801 800 800 800 800 799 799 799 799 798 798 798 798 798 797 797 796 796 795 795 795 794 794 792 791 790 789 788 787 787 787 786 784 782 781 781 781 780 780 779 779 778 777 777 776 775 774 773 773 772 772 771 770 770 769 769
808 808 808 808 808 808 808 808 808 807 807 807 806 806 806 806 805 805 805 805 804 804 804 804 804 803 802 802 801 801 800 800 799 799 799 799 798 798 798 798 797 797 797 797 796 796 795 795 794 793 793 793 792 791 790 789 787 786 785 785 785 784 783 782 781 780 779 778 778 777 777 777 776 775 774 773 772 772 771 770 769 769 768 768 767 767
807 807 807 807 807 807 807 807 807 807 806 806 806 805 805 805 805 804 804 804 804 804 804 804 804 803 802 802 801 800 799 799 799 798 798 798 798 797 797 797 797 797 796 796 795 795 794 793 793 792 792 791 790 789 788 788 787 785 784 783 783 782 781 780 779 779 778 778 777 776 776 775 775 774 772 771 770 769 769 768 768 767 767 766 765 765
806 807 807 807 807 807 807 807 806 806 806 805 805 805 804 804 804 804 804 804 803 803 803 803 803 803 802 801 801 800 799 798 798 797 797 797 797 797 797 796 796 796 795 795 794 793 793 792 792 791 791 790 789 787 786 786 785 784 783 782 782 781 780 779 778 777 777 777 776 775 774 774 773 772 771 770 769 768 767 767 766 766 765 764 763 763
806 806 806 806 806 806 806 806 806 805 805 804 804 804 804 803 803 803 803 803 803 803 803 802 802 802 801 801 800 800 799 798 797 797 797 796 796 796 796 795 795 794 794 793 793 792 791 791 790 790 789 789 787 786 784 784 783 783 782 781 781 780 778 777 776 776 776 776 775 774 774 773 772 771 770 768 767 766 765 764 764 764 763 762 762 761
805 805 805 805 805 805 805 805 805 805 804 804 803 803 803 803 803 803 802 802 802 802 802 802 802 801 801 800 799 799 798 797 797 796 796 795 795 795 794 794 793 793 792 792 791 791 790 789 788 787 787 787 786 784 782 782 781 781 780 780 779 778 777 776 775 775 775 774 773 773 772 772 771 770 769 767 766 764 762 762 762 761 761 761 760 759
804 804 804 804 804 804 804 804 804 804 803 803 803 802 802 802 802 802 802 802 802 802 802 801 801 801 800 799 798 798 797 797 796 795 795 795 794 794 793 793 792 792 791 790 789 789 788 787 785 785 784 784 783 782 781 780 779 779 779 778 777 777 776 775 774 773 773 772 772 771 771 770 770 769 768 767 765 762 761 760 759 759 758 758 758 757
803 803 803 803 803 803 803 803 803 803 803 802 802 802 802 802 802 802 801 801 801 801 801 800 800 800 799 798 797 797 797 796 795 794 794 793 793 793 792 792 791 791 790 789 788 787 787 785 784 782 782 782 781 781 780 779 778 777 777 776 776 775 775 773 772 772 772 771 771 770 769 769 768 767 767 766 764 762 759 758 757 756 756 756 756 755
Wind_Speed
3 3 3 4 3 2 3 4 5 4 4 4 4 4 5 5 6 6 7 8 9 10 11 12 13 14 15 16 16 16 16 15 14 12 10 7 5 4 4 5 5 6 7 8 8 9 9 9 10 10 10 10 11 11 11 12 12 12 12 12 12 12 12 12 12 12 11 11 11 11 10 10 10 10 9 9 9 9 10 10 10 11 11 11 12 12
3 3 3 3 3 3 3 4 5 6 6 7 7 8 9 9 10 11 11 12 13 13 14 14 14 14 14 14 13 12 10 8 6 4 3 3 3 4 5 5 6 7 7 8 8 8 9 9 10 10 11 11 11 12 12 12 12 12 12 12 12 12 11 11 11 11 11 11 11 11 11 11 11 11 10 11 11 11 11 11 11 11 12 12 12 12
3 2 3 3 3 3 3 4 4 5 7 8 9 10 11 11 11 11 11 11 11 10 10 9 9 8 7 6 5 3 2 1 1 1 2 3 4 5 5 5 6 6 6 7 7 8 9 9 10 10 11 11 12 12 12 12 12 12 11 11 11 11 11 11 11 10 10 10 9 9 9 10 10 10 11 11 11 11 11 11 11 12 12 12 12 12
3 2 2 3 3 3 3 3 3 3 4 5 6 6 7 7 6 5 5 4 3 2 2 1 0 1 1 2 2 3 3 2 1 2 3 4 5 5 4 4 5 5 6 7 8 8 9 10 10 10 10 11 11 11 11 11 11 11 11 11 11 10 10 10 9 8 8 8 8 8 8 8 9 9 10 10 10 11 11 11 11 11 11 11 11 11
2 3 3 3 3 3 3 2 2 2 1 1 1 1 1 0 0 1 2 3 4 4 5 5 4 4 4 4 4 3 3 2 1 3 4 4 4 3 3 4 5 6 7 8 8 9 9 9 9 9 10 10 10 10 10 10 11 10 10 9 8 7 7 7 7 7 7 7 7 8 8 8 9 9 9 10 10 10 10 10 10 10 10 10 11 11
3 4 4 4 4 4 3 3 3 3 3 3 3 3 3 4 4 5 5 5 5 5 5 4 4 3 3 3 2 2 1 1 1 3 4 3 3 3 4 5 6 7 8 8 9 9 9 9 9 9 9 8 8 8 8 8 8 7 7 6 6 6 6 7 7 8 8 8 9 9 9 9 10 10 10 10 10 10 10 10 10 10 10 10 10 10
5 5 5 5 5 4 4 4 5 5 5 5 5 5 5 5 5 5 5 4 3 3 2 2 1 1 1 0 0 0 1 1 2 3 5 5 6 6 7 7 8 9 9 9 9 8 8 8 8 8 8 8 8 7 7 6 6 6 6 6 7 7 8 8 9 9 9 10 10 10 10 10 10 11 10 10 10 10 10 10 10 10 10 10 10 11
6 6 6 6 6 5 5 5 6 6 6 5 5 5 5 4 4 3 2 2 1 1 1 1 1 1 1 1 2 2 3 3 4 5 7 8 9 9 10 10 11 11 11 10 9 9 9 9 9 9 9 8 8 8 8 8 8 8 8 9 9 9 9 9 10 10 10 11 11 11 11 11 11 11 11 11 11 10 10 10 10 10 10 11 11 11
7 7 6 6 6 6 6 5 5 6 5 5 4 3 3 2 2 1 1 2 2 2 2 2 2 2 2 2 3 3 4 4 5 6 7 8 9 10 11 12 12 12 12 11 10 9 9 10 10 10 9 9 9 9 9 9 10 10 10 10 10 10 11 11 11 12 12 12 12 12 12 12 11 11 11 11 11 10 10 10 10 10 11 11 11 11
7 7 6 6 6 6 6 5 5 4 4 4 3 2 2 2 2 3 3 3 3 3 3 2 2 2 2 3 3 4 4 5 6 7 8 9 10 11 12 13 13 13 13 12 11 11 10 11 10 10 10 10 10 10 10 10 11 11 11 12 12 12 13 13 14 14 13 13 12 12 12 12 11 11 11 11 10 10 10 10 10 11 11 11 11 11
6 6 5 5 5 5 5 4 4 3 3 3 3 3 3 3 4 4 4 4 3 3 3 2 2 2 2 3 3 4 5 6 7 8 9 10 11 12 13 13 14 14 14 13 13 12 12 12 12 11 11 11 11 11 12 12 13 13 14 14 15 15 15 15 15 14 13 12 11 11 11 11 10 10 10 10 10 10 10 10 11 11 11 11 11 11
5 5 4 4 4 4 4 4 3 3 3 3 3 3 3 3 4 4 4 3 3 3 2 2 2 3 3 4 5 6 7 9 10 11 12 12 13 13 14 15 15 16 15 14 13 13 13 13 13 13 13 13 14 14 15 15 16 16 16 16 16 16 15 14 13 12 11 10 10 10 10 10 10 10 10 10 11 11 11 11 11 11 11 12 12 12
4 4 3 3 3 4 4 4 4 4 4 4 4 4 3 3 4 4 4 3 2 3 3 3 3 4 5 6 7 8 10 11 12 13 13 13 14 15 16 17 18 18 16 14 12 11 12 13 14 14 15 16 16 17 17 17 17 17 17 16 15 14 12 11 10 10 9 10 10 10 10 10 10 10 10 11 11 11 11 11 11 12 12 12 13 13
4 4 4 4 4 5 5 5 5 5 5 5 4 4 4 4 4 4 3 3 3 3 4 4 4 5 6 8 9 10 11 12 12 13 13 13 14 16 18 20 20 19 16 13 11 10 10 11 13 14 15 15 16 16 16 16 16 16 15 13 12 11 10 9 9 9 9 10 10 10 10 10 10 10 11 11 11 11 12 12 12 12 13 13 13 13
5 5 5 5 5 6 6 6 6 5 5 5 5 5 4 4 3 3 3 3 3 4 5 5 6 7 7 8 9 10 11 12 12 13 14 15 17 18 20 21 20 18 14 11 9 8 9 10 11 12 13 14 14 14 14 14 13 13 12 10 10 9 9 9 10 10 10 10 10 11 11 11 11 11 11 11 12 12 12 12 13 13 13 13 14 14
6 6 6 6 6 6 6 6 6 5 5 5 5 4 4 3 3 3 4 4 5 6 7 7 8 8 8 8 8 9 10 11 13 15 17 19 20 20 20 20 18 15 11 8 7 7 7 8 9 10 11 12 12 12 12 11 11 10 10 9 9 10 10 10 10 10 10 11 11 11 11 11 11 11 12 12 12 12 13 13 13 13 14 14 14 14
6 6 6 6 5 5 5 5 5 5 5 4 4 4 4 4 4 5 5 6 7 7 7 7 7 8 8 8 8 8 10 13 15 18 21 22 22 21 19 17 15 12 9 6 5 5 6 7 8 9 10 10 11 11 11 10 10 10 10 10 10 10 10 10 11 11 11 11 11 11 11 11 11 12 12 12 12 13 13 13 13 14 14 14 14 14
5 5 5 4 4 4 4 4 4 4 4 4 4 5 5 5 6 7 7 8 8 7 7 7 7 8 9 9 8 9 12 15 17 20 22 23 22 20 16 14 12 9 7 5 4 5 6 7 7 8 9 10 10 11 11 11 11 11 11 11 11 11 11 11 11 11 11 11 11 11 11 11 12 12 12 12 12 13 13 13 13 14 14 14 14 14
4 4 3 3 3 3 3 3 3 4 4 5 6 6 6 7 8 8 9 9 9 8 8 8 8 9 9 10 10 12 14 16 18 19 20 20 20 18 14 11 9 8 7 6 5 6 7 8 8 9 9 10 10 11 12 12 12 12 12 12 11 11 11 11 11 11 11 11 11 11 11 11 11 11 12 12 12 13 13 13 13 14 14 14 14 15
3 3 3 3 3 3 3 4 5 5 6 7 8 8 8 8 9 8 8 9 9 10 10 9 9 9 9 10 11 12 14 16 17 17 16 16 17 15 12 9 8 8 8 7 8 8 9 10 9 9 9 10 10 11 12 13 13 13 13 13 12 12 11 11 11 11 11 11 11 11 11 11 11 11 12 12 13 13 13 14 14 14 14 15 15 15
2 2 2 3 3 4 5 6 6 7 8 9 10 10 10 10 10 9 9 9 9 9 9 8 8 9 10 11 13 14 15 15 14 14 13 13 13 13 10 9 9 9 10 10 10 11 12 11 11 10 10 10 11 11 12 13 13 13 13 13 12 12 11 10 10 10 10 10 10 10 10 11 11 12 12 13 13 13 14 14 14 15 15 15 15 16
2 2 2 3 4 4 6 7 8 8 9 10 10 10 11 11 10 10 10 10 10 9 9 9 10 11 12 13 14 14 14 13 12 12 11 11 11 10 9 10 10 12 13 13 13 13 13 12 11 10 10 10 11 11 12 12 13 13 13 12 12 11 10 10 9 9 9 9 9 10 10 11 12 12 13 13 14 14 14 14 14 15 15 15 16 16
1 2 2 3 4 5 6 7 8 8 9 9 10 10 11 10 10 11 11 11 10 10 11 11 12 13 13 13 13 12 11 10 11 11 9 8 8 10 11 12 13 14 15 15 16 16 15 13 11 11 10 10 11 11 12 12 12 12 12 11 10 9 8 8 8 8 8 9 10 10 11 12 13 14 14 14 14 14 14 14 14 14 15 15 15 16
2 2 3 3 4 5 6 7 7 8 8 9 9 10 10 11 11 11 11 11 11 11 11 12 13 13 13 12 11 10 10 9 9 9 7 7 8 11 12 13 14 15 16 17 18 18 17 15 12 10 9 10 10 11 11 11 11 10 9 8 7 6 6 7 7 8 9 10 11 12 13 14 14 14 14 14 14 14 14 14 14 14 14 15 15 15
3 3 4 4 5 6 7 7 8 9 9 10 10 11 11 11 12 12 12 12 12 12 12 12 12 12 12 11 10 9 9 9 9 9 8 7 9 11 12 13 14 15 17 19 20 19 19 16 12 9 7 7 8 9 10 9 8 6 5 5 5 5 6 7 8 9 10 12 13 14 14 14 14 14 14 14 14 13 14 14 14 14 14 15 15 15
3 3 4 6 7 7 8 9 10 10 10 11 11 12 12 13 13 13 12 12 12 11 12 12 12 11 11 11 9 9 9 9 10 10 9 8 9 11 11 12 13 16 20 22 22 21 19 16 11 6 4 5 6 7 8 7 5 4 4 5 6 6 7 9 10 11 13 14 14 15 14 14 13 13 13 13 13 13 13 14 14 14 15 15 15 16
4 5 6 7 8 9 11 12 12 13 12 12 11 11 12 13 13 12 12 11 11 11 11 10 10 11 11 10 9 9 9 10 10 10 9 9 9 9 10 12 14 17 21 23 23 21 18 13 7 3 2 3 5 6 6 6 6 6 6 7 7 8 10 11 12 14 15 15 15 14 13 13 12 13 13 13 13 13 14 14 14 14 15 15 16 16
8 9 9 10 11 12 13 13 14 14 13 12 10 9 10 11 11 11 11 11 10 10 10 10 10 9 9 9 10 11 11 10 9 8 8 8 7 7 10 12 15 17 20 22 22 20 15 9 4 1 2 3 4 5 5 6 7 7 7 8 9 10 12 14 15 15 15 14 13 13 12 12 12 12 13 13 13 14 14 14 14 14 15 15 16 17
10 10 11 12 13 14 15 15 14 13 12 11 10 9 9 10 11 11 11 10 10 10 11 11 11 10 10 11 11 12 10 8 6 5 6 7 7 8 10 12 14 16 18 19 19 16 11 6 2 1 2 4 4 5 5 5 6 7 8 10 12 13 14 14 14 13 12 12 12 12 12 12 12 13 13 13 13 14 14 14 14 14 15 15 16 17
11 12 13 14 15 16 17 16 14 12 10 9 9 9 9 10 11 11 11 11 10 10 11 11 11 11 10 10 10 9 6 3 2 4 8 8 8 9 11 11 12 14 15 15 12 10 8 6 2 1 2 3 3 4 5 6 7 10 11 13 13 13 12 11 10 10 10 11 11 11 12 12 12 13 13 13 13 13 13 13 13 14 15 16 17 17
12 13 14 15 17 18 18 17 14 11 9 8 7 7 8 8 9 10 10 10 10 10 10 11 11 10 9 8 5 3 4 3 4 7 10 9 9 10 11 11 11 12 13 11 8 5 5 5 3 1 3 6 8 8 9 10 11 11 11 11 10 9 8 8 9 10 11 11 11 11 11 11 11 12 12 12 12 13 13 13 13 13 15 15 16 17
11 13 14 16 18 19 19 17 13 10 7 6 6 6 6 7 7 8 8 8 9 9 9 9 9 9 8 7 6 5 7 7 8 10 11 10 10 11 11 10 10 11 11 9 6 4 3 5 7 10 15 17 17 17 15 13 11 9 9 9 8 8 8 10 11 12 12 12 12 11 10 10 10 10 10 11 11 12 12 12 12 13 14 15 16 17
13 15 17 18 19 19 18 15 11 8 6 5 5 5 5 5 5 6 6 6 6 7 7 7 7 7 8 8 9 10 10 10 9 9 9 10 10 11 11 11 11 11 11 10 8 7 7 8 12 16 19 19 19 18 16 14 12 10 10 10 11 12 12 12 13 13 13 12 12 10 9 9 9 9 10 10 11 11 11 12 12 12 13 14 15 16
17 18 19 20 20 19 16 12 8 6 5 5 4 4 4 4 4 4 5 5 6 6 7 7 7 7 8 9 9 10 11 10 8 8 8 9 10 11 12 11 11 11 11 10 9 9 10 12 13 15 16 16 16 16 16 15 13 12 12 13 14 15 15 15 15 14 13 12 11 11 10 10 10 11 11 11 11 11 11 11 11 11 12 13 14 16
20 21 21 20 19 16 12 8 6 5 5 5 4 4 4 4 5 6 6 7 7 7 8 8 9 9 9 10 10 11 11 11 10 10 10 10 11 12 12 11 11 10 10 10 9 9 10 11 13 13 14 15 16 15 14 14 14 14 14 15 16 17 17 16 15 14 13 12 12 12 12 12 12 13 13 13 13 12 12 12 12 12 13 13 14 16
21 21 20 18 15 11 8 5 5 5 5 5 5 5 5 6 6 7 8 9 9 9 10 10 10 11 11 12 13 13 14 14 14 13 12 12 12 12 12 12 11 10 10 10 10 10 10 12 13 13 13 14 14 15 15 14 15 15 16 17 18 18 17 15 14 13 13 13 13 13 14 14 14 14 14 14 14 13 13 13 13 14 14 15 15 15
20 19 17 14 10 6 4 4 4 5 5 6 6 6 7 7 8 8 9 10 11 11 12 12 13 13 14 14 15 15 16 16 15 14 13 12 12 13 13 13 12 11 10 10 11 11 11 12 13 14 13 13 13 13 14 15 16 16 17 18 18 18 17 15 13 12 13 14 15 15 15 15 15 15 15 15 15 15 15 14 15 15 15 15 15 15
17 15 13 10 6 4 3 4 4 5 6 6 7 7 8 8 9 10 11 11 12 13 13 14 14 14 14 14 14 15 15 15 15 14 13 12 12 13 14 14 14 13 12 12 12 12 12 12 12 12 12 13 13 14 15 15 16 17 18 18 18 16 15 14 13 13 14 15 15 16 16 15 15 16 16 16 16 16 16 16 15 15 14 15 15 15
14 12 10 7 4 3 3 4 5 5 6 7 7 8 9 9 10 11 12 13 13 13 14 13 13 12 12 12 12 13 13 13 13 13 12 12 12 13 14 15 15 15 14 14 14 14 13 13 12 12 12 13 15 16 16 16 16 17 18 18 17 16 14 14 13 14 15 15 16 16 16 15 16 16 17 17 17 17 17 17 17 16 16 17 17 17
12 10 8 6 4 3 4 5 5 6 7 7 8 9 10 10 11 12 12 12 12 11 10 10 9 10 10 11 11 12 12 12 12 12 12 12 12 12 13 14 15 15 15 14 14 14 14 14 14 15 14 14 15 16 17 17 17 17 17 17 16 16 15 15 15 16 15 15 15 15 16 16 17 17 18 18 18 18 18 19 19 18 18 18 19 20
10 9 7 5 4 4 4 5 6 7 7 8 8 9 11 12 13 13 13 12 10 8 7 7 8 9 10 11 11 12 12 12 12 12 11 11 10 11 11 12 13 14 14 14 15 15 15 15 15 16 16 16 16 17 18 18 17 17 16 16 17 18 18 18 16 15 14 14 14 15 16 17 18 18 18 19 19 19 19 19 20 20 19 19 18 19
10 9 8 6 6 6 6 6 7 7 8 9 10 11 12 13 14 14 14 12 10 7 7 7 9 11 12 13 12 12 11 10 9 9 9 9 9 9 10 11 12 13 13 14 15 15 16 16 16 16 16 16 16 17 18 18 18 17 17 17 18 19 19 17 15 14 13 14 15 16 17 18 18 19 19 20 20 20 20 20 20 20 20 19 19 19
11 10 9 8 7 7 8 7 8 8 9 10 11 12 13 13 14 13 13 12 11 9 9 10 11 13 14 15 14 13 11 9 8 7 7 7 8 9 10 11 12 12 13 14 15 16 16 16 16 16 16 16 17 17 18 19 19 19 18 17 17 17 16 16 16 16 16 16 17 17 17 18 19 20 20 21 21 21 21 20 20 20 20 20 20 21
12 11 9 8 8 8 8 8 8 9 10 11 12 13 14 13 12 11 11 11 11 10 10 11 12 13 14 14 13 13 12 10 9 8 8 8 8 9 9 10 11 12 13 14 15 15 16 16 16 16 16 16 17 18 18 19 20 20 19 18 17 17 17 18 19 19 19 18 18 18 18 19 20 21 21 22 21 21 21 21 20 20 20 20 20 21
12 11 9 9 8 8 8 8 9 10 11 12 13 14 15 13 11 9 9 10 11 11 11 11 12 12 12 12 13 13 12 12 11 10 10 9 8 8 9 9 10 10 12 13 15 16 16 16 16 16 16 16 17 17 18 19 20 20 20 19 18 18 19 20 20 20 19 20 20 20 20 20 20 21 22 21 21 21 21 21 21 21 21 20 20 20
11 10 9 9 8 8 8 9 9 10 12 13 13 14 14 13 10 9 8 9 10 11 11 11 11 11 11 12 13 14 14 13 13 12 11 10 9 9 8 9 10 10 12 13 14 15 16 17 18 18 17 17 17 18 19 19 19 20 20 19 19 19 20 20 20 19 19 20 20 20 20 20 20 21 21 21 22 22 21 20 20 20 20 20 20 21
9 9 9 9 9 9 9 9 10 11 12 13 14 14 14 12 10 8 7 8 9 10 11 11 11 11 12 13 14 14 14 14 14 13 12 11 11 10 10 10 10 10 12 13 14 15 17 18 19 19 19 18 18 18 19 19 19 19 20 20 19 19 19 20 20 19 19 19 19 20 21 21 21 21 21 22 22 22 21 20 19 19 19 19 20 20
8 9 9 9 9 9 9 10 11 12 13 14 14 14 13 11 8 7 7 7 8 9 11 11 12 12 13 13 14 14 14 14 14 14 13 13 13 12 12 11 11 11 12 13 15 16 17 18 19 20 20 20 19 19 19 19 19 19 19 19 19 18 19 20 20 20 19 19 20 20 21 21 21 22 22 23 23 23 22 21 20 19 19 19 20 21
8 9 9 9 9 9 10 11 11 12 13 13 13 13 12 9 7 6 7 8 8 9 10 11 12 12 13 13 14 14 14 14 14 14 14 14 13 13 13 13 13 13 14 15 15 16 18 19 19 20 21 22 22 21 21 21 21 20 19 19 19 19 19 20 20 20 20 20 21 22 22 22 22 22 21 21 22 23 23 22 21 20 19 19 20 21
9 9 10 10 10 10 10 11 11 11 11 11 11 11 10 9 8 7 7 8 9 10 10 11 12 12 13 13 14 14 14 14 14 14 14 14 13 13 13 13 14 14 14 14 15 15 16 16 17 18 18 19 21 22 23 22 22 21 20 20 20 20 20 21 21 22 22 22 22 23 22 22 21 21 20 20 21 22 23 23 22 21 20 19 19 20
10 10 10 10 10 10 10 10 10 10 10 10 10 10 10 10 9 9 8 9 9 10 10 11 12 12 13 13 14 14 13 14 14 14 14 14 14 13 13 13 13 13 13 12 12 12 11 11 12 14 16 16 16 18 20 22 22 21 21 21 21 20 21 21 22 23 22 22 22 21 21 20 20 19 18 18 19 21 22 23 22 21 20 19 19 20
Wind_Direction
314 312 319 332 329 293 232 223 226 234 243 247 248 248 249 252 257 261 265 271 274 276 277 279 280 282 283 284 286 287 288 289 289 288 288 287 288 293 301 305 306 303 298 293 290 291 292 293 293 292 290 291 291 289 286 284 282 281 281 279 278 277 277 277 277 279 280 279 279 280 284 289 289 288 289 291 291 291 291 291 289 287 286 287 287 287
329 323 321 326 320 296 262 247 241 245 258 268 271 272 273 275 276 277 278 280 281 282 282 282 283 284 285 285 285 286 288 290 292 296 303 311 318 317 316 315 315 312 306 301 299 297 294 293 292 291 288 286 286 284 281 279 278 277 278 278 277 276 277 277 278 280 283 281 282 285 287 288 288 288 290 290 290 290 289 288 288 288 285 284 283 283
348 343 337 333 323 306 285 279 268 261 262 269 274 276 278 279 280 280 280 281 282 282 281 281 280 281 283 285 287 289 295 349 34 28 355 329 315 307 303 300 298 298 301 299 297 294 293 291 290 288 286 284 282 281 280 279 279 278 278 277 275 274 274 274 275 276 279 279 281 283 284 285 285 286 288 287 286 286 284 284 283 282 279 279 279 279
5 5 7 357 348 338 327 318 308 294 278 271 272 275 277 279 280 279 280 283 291 299 305 319 45 75 74 72 75 83 95 91 47 330 317 308 300 295 295 298 302 304 306 305 303 301 300 297 295 292 289 287 285 283 281 281 279 276 274 272 271 270 271 271 272 276 282 284 285 286 287 288 289 289 289 287 284 281 278 278 277 275 273 274 275 275
36 37 34 27 24 23 20 13 8 2 349 322 288 284 285 292 81 101 98 96 94 91 89 88 87 85 82 79 76 78 84 79 352 315 309 306 304 303 307 313 312 311 312 311 309 307 304 301 298 295 293 291 290 287 283 277 273 271 269 269 271 275 278 279 280 284 290 290 289 289 291 290 290 290 290 288 286 283 281 280 278 276 276 276 276 277
67 63 56 50 48 49 52 55 58 61 66 74 79 84 87 91 95 99 101 101 100 97 94 89 85 81 77 76 75 77 78 62 344 311 296 287 286 294 301 306 307 307 310 310 308 306 304 303 301 299 299 300 301 299 292 281 276 277 281 282 284 284 283 282 282 282 284 284 283 284 286 287 287 288 288 288 288 286 284 284 283 282 282 280 280 280
83 75 67 63 62 65 69 72 74 75 75 75 79 85 89 93 96 99 102 104 101 97 93 88 84 73 75 77 148 225 230 238 251 255 256 258 265 276 287 297 302 305 306 305 304 302 300 299 297 295 295 298 301 302 298 291 287 287 289 286 282 279 276 277 278 281 282 283 284 284 285 286 285 285 285 285 284 283 283 282 281 281 281 280 280 280
91 83 77 71 70 72 75 77 77 78 79 78 79 83 88 91 94 94 92 84 66 27 344 312 285 263 249 245 244 242 243 241 241 245 252 260 268 278 287 296 301 304 304 301 299 297 294 291 289 286 284 284 283 283 281 279 277 276 275 273 273 273 274 276 279 281 284 285 285 285 285 285 284 283 282 282 281 280 279 279 279 278 278 278 278 278
91 87 81 76 72 70 69 73 75 75 74 73 74 73 72 69 65 39 353 328 317 313 309 299 286 266 251 245 242 241 241 241 247 254 263 271 280 288 294 300 305 306 305 301 297 292 287 284 281 279 278 276 274 272 272 271 270 268 267 267 268 270 272 275 277 279 281 283 283 283 283 282 282 281 280 278 278 277 276 276 276 276 276 276 275 276
90 86 81 79 75 70 65 65 68 66 61 54 49 40 22 2 350 342 336 326 321 320 318 310 294 269 255 249 245 242 244 249 257 266 275 283 290 296 301 305 308 310 307 302 295 288 282 278 275 274 274 273 271 269 268 266 264 263 263 264 267 270 273 275 277 279 280 281 281 280 280 280 279 278 277 275 274 273 273 273 273 273 273 273 273 274
89 85 80 74 72 69 64 60 58 51 41 29 19 7 356 348 345 344 342 335 328 323 319 313 292 263 252 249 250 256 260 265 272 278 284 288 292 296 300 303 307 309 308 301 293 285 278 274 272 270 270 268 266 264 263 262 262 263 265 268 270 274 276 278 279 280 280 279 279 278 277 277 276 275 274 274 273 272 272 272 272 272 273 273 274 274
82 76 70 64 60 56 53 48 41 32 22 13 6 358 352 350 349 348 348 338 324 314 309 298 280 268 264 262 268 274 278 280 283 286 288 291 293 296 299 303 306 308 307 301 291 282 276 271 268 267 265 264 263 263 264 265 266 269 271 274 276 278 280 281 281 280 278 278 277 276 275 275 275 274 273 274 273 273 273 273 273 273 274 274 275 276
73 66 59 56 52 47 42 37 30 23 18 15 10 3 357 357 352 348 347 335 315 301 298 289 281 280 284 285 286 287 288 288 289 290 292 294 297 300 303 305 308 309 307 301 291 279 271 266 265 264 264 265 266 267 268 270 272 273 275 277 278 280 280 281 280 278 278 277 276 276 276 276 275 275 275 275 275 275 275 274 275 275 275 276 276 277
71 65 62 60 55 49 42 38 33 29 25 22 18 12 5 357 351 346 340 324 308 303 302 292 288 290 294 294 294 294 293 292 292 292 293 295 299 303 307 308 309 310 308 302 290 276 266 261 260 261 262 264 266 268 270 271 273 274 275 277 278 279 279 278 278 277 277 277 277 277 277 277 277 276 275 275 276 276 276 276 275 275 275 275 275 276
67 63 62 61 57 51 46 41 37 34 28 23 16 9 3 358 354 349 337 322 313 311 308 304 301 298 297 295 295 296 296 295 295 295 295 296 300 305 308 310 311 310 308 299 286 271 262 257 255 257 258 260 262 264 266 268 269 271 272 274 276 276 276 275 275 275 275 276 276 277 277 277 277 277 276 275 276 277 277 276 275 275 275 275 275 275
63 60 64 64 59 52 46 39 36 34 27 19 15 12 12 8 0 349 341 335 330 326 324 323 317 309 301 297 298 299 299 299 299 300 301 301 303 307 311 312 312 311 306 296 281 265 255 252 251 252 253 254 255 257 258 260 263 265 268 271 272 272 273 272 272 272 272 272 273 273 275 275 276 276 276 276 276 277 276 276 276 275 275 275 275 275
59 56 57 59 57 50 39 32 28 26 21 19 16 13 7 0 353 348 343 339 336 335 333 328 321 314 305 303 302 303 302 303 304 304 305 306 307 310 314 314 313 311 306 293 276 261 253 250 250 250 251 250 249 249 250 253 256 260 264 267 268 269 269 270 270 271 271 271 272 272 273 274 275 276 277 277 277 277 277 277 277 276 276 276 275 275
52 47 45 49 50 41 30 28 25 19 14 14 10 3 355 349 345 342 339 336 335 333 327 321 313 307 303 303 303 303 304 305 307 308 309 309 310 313 317 317 314 311 305 295 281 271 266 263 261 258 255 252 249 247 247 250 253 256 258 262 264 265 265 267 268 271 272 272 273 273 274 275 276 277 278 278 279 279 278 278 278 277 277 276 276 276
41 36 37 40 36 27 18 18 16 11 5 0 354 350 344 336 332 328 324 323 322 320 316 311 306 301 298 298 300 304 306 308 310 311 311 310 313 317 322 322 317 312 307 303 297 292 286 280 274 269 264 259 254 251 249 249 251 253 254 257 260 262 263 265 268 271 272 273 275 276 276 277 278 279 280 280 280 280 280 280 279 278 278 277 276 276
33 33 37 34 28 22 13 4 355 350 345 338 333 330 327 323 321 320 318 315 313 311 309 305 302 300 299 301 305 309 310 312 314 314 311 310 312 318 326 326 320 314 309 307 304 301 296 290 284 278 271 265 260 255 252 251 251 252 254 256 259 261 263 265 268 271 273 274 276 277 278 279 280 280 280 281 281 281 280 280 280 279 278 277 277 276
39 42 24 12 10 9 3 353 343 335 328 324 322 322 320 318 316 313 311 311 310 309 310 307 304 304 305 306 308 310 313 315 316 314 310 308 310 316 325 326 321 314 309 306 305 302 299 295 290 284 279 272 265 260 256 254 253 253 254 256 259 261 264 267 270 272 274 275 276 277 279 280 281 282 282 282 282 282 281 280 279 278 277 276 276 276
36 35 12 357 350 345 339 333 325 319 317 317 318 317 316 314 311 309 308 308 308 308 308 306 306 306 306 307 309 312 314 315 315 313 310 305 304 311 323 324 319 314 310 308 306 304 302 298 295 290 285 278 271 264 259 256 255 255 256 258 260 262 265 268 272 274 275 277 278 279 280 281 282 283 284 284 284 283 282 280 279 278 277 276 275 275
343 356 356 352 342 330 322 316 314 314 314 313 311 310 309 307 305 304 303 303 302 303 305 306 306 305 305 308 311 314 316 316 315 314 310 299 300 310 318 320 318 314 311 310 310 309 306 304 302 299 292 282 273 266 261 257 256 256 257 259 261 263 267 271 274 274 276 277 279 280 281 281 282 283 284 284 284 283 281 280 279 278 277 276 275 274
310 314 328 336 331 323 319 319 318 315 313 310 308 307 305 303 300 299 297 297 298 299 301 302 304 305 306 310 313 315 316 316 316 315 311 297 297 305 313 317 318 315 313 313 313 313 311 310 309 305 295 283 272 264 258 256 255 255 258 260 263 267 271 273 273 274 274 276 278 279 281 283 284 285 285 284 283 282 281 280 279 278 278 277 276 275
310 311 318 324 326 325 323 320 316 313 309 306 303 301 300 300 298 297 296 295 295 296 299 302 303 304 306 310 313 315 316 317 317 314 308 298 297 303 311 318 320 319 317 315 315 316 316 316 315 308 291 275 265 259 254 252 251 253 254 257 261 264 266 267 268 269 272 275 277 279 282 284 286 286 285 284 282 281 280 280 279 278 278 277 276 275
323 323 323 323 322 318 311 304 299 296 297 296 296 295 296 295 294 292 291 290 292 295 299 300 301 302 305 308 311 313 315 316 315 310 303 298 300 305 311 320 324 324 321 318 318 320 323 324 322 312 279 258 253 250 246 238 232 229 231 237 243 250 255 260 264 268 273 276 279 282 284 285 286 286 284 283 282 281 280 279 279 278 278 278 277 275
310 314 315 316 315 311 306 299 293 289 287 285 287 291 293 291 290 288 286 286 289 291 293 295 296 300 304 306 307 309 313 312 309 305 301 299 300 305 314 324 328 327 325 322 323 326 329 330 329 316 253 232 234 236 233 226 221 220 224 231 239 248 257 264 269 274 277 279 281 282 283 285 285 285 284 283 282 281 280 279 279 278 279 278 276 274
302 306 309 314 318 319 318 313 306 299 292 285 282 283 286 284 284 283 281 282 284 285 283 284 287 293 298 301 303 307 311 308 303 301 304 309 308 309 318 327 331 331 330 327 327 329 334 336 336 285 208 209 215 221 224 227 228 229 234 243 253 262 269 274 277 279 280 281 281 282 282 283 284 285 285 283 282 281 280 279 279 280 279 278 276 274
306 309 313 317 323 327 328 325 319 310 301 292 284 276 272 272 275 278 279 280 281 279 277 276 277 282 289 295 301 306 309 303 300 307 319 324 318 314 321 327 332 335 336 333 332 333 338 344 343 227 205 204 209 216 221 233 241 248 258 267 273 276 279 280 280 280 280 280 281 281 282 284 284 284 284 283 282 281 280 280 280 280 279 277 276 275
308 311 313 317 322 326 329 329 325 316 306 296 286 277 270 268 270 274 277 279 279 277 275 274 275 277 283 294 303 308 308 308 315 327 331 329 322 318 323 327 331 336 340 340 338 334 332 339 353 153 196 208 216 227 240 262 274 278 279 280 280 281 281 281 282 282 284 285 285 285 283 283 283 283 282 281 281 281 280 281 281 280 279 278 277 277
306 309 313 316 320 324 327 328 325 318 306 295 287 282 278 274 273 274 276 276 276 275 274 275 276 277 280 288 297 302 297 310 319 323 328 325 318 315 320 324 326 332 339 345 345 333 323 324 334 322 282 289 289 288 291 293 294 293 290 288 285 285 287 290 293 295 296 296 294 292 288 285 283 282 281 280 280 280 280 281 281 281 280 280 280 279
305 309 312 315 318 321 324 325 323 316 304 292 287 285 284 280 277 275 274 273 272 273 274 275 276 277 277 275 271 269 280 293 305 314 320 318 311 310 314 317 319 323 328 334 329 313 303 304 306 305 303 305 307 308 310 313 315 315 310 306 304 305 306 308 308 308 306 304 301 297 294 291 287 285 283 282 281 280 280 279 280 281 282 283 283 283
307 309 311 312 315 319 321 321 318 310 298 289 287 286 284 279 276 272 271 271 271 273 275 277 278 280 280 277 274 274 278 286 295 304 309 307 305 305 307 309 311 313 316 317 308 291 278 283 295 302 306 309 312 316 320 324 328 329 325 320 316 315 316 316 314 312 309 306 304 301 299 297 295 294 292 289 287 285 282 280 279 280 283 286 287 288
307 307 308 311 314 317 318 316 309 295 284 279 278 279 278 277 277 277 278 278 279 279 281 283 285 287 289 288 284 282 282 284 288 293 296 298 299 300 301 302 304 306 309 308 303 294 284 284 291 299 305 308 310 312 316 321 325 325 322 319 316 316 317 317 316 313 310 308 306 305 305 305 304 303 300 298 296 293 289 286 283 283 285 286 288 289
305 307 309 312 315 316 315 308 292 274 267 267 267 269 272 276 280 283 285 287 288 289 288 287 288 289 291 291 289 286 284 285 288 291 292 293 293 295 296 295 296 300 302 300 299 298 294 291 293 298 303 305 306 307 309 315 318 318 316 315 314 314 316 317 316 314 312 310 309 309 309 310 309 308 307 305 304 301 299 295 291 288 285 283 282 283
308 310 312 315 317 317 311 293 271 260 261 264 267 271 273 276 280 283 285 286 287 287 287 287 287 287 287 287 286 286 286 288 291 292 290 287 287 288 288 286 288 292 293 292 293 294 295 296 297 298 300 302 303 305 307 311 313 313 312 312 313 314 315 317 317 315 313 310 309 309 310 310 310 310 310 309 308 307 302 297 292 288 285 282 279 279
313 315 317 320 322 318 302 282 271 268 271 272 274 277 278 278 281 283 286 285 284 283 282 283 283 283 283 283 284 285 287 289 290 290 288 285 282 280 278 279 281 283 282 283 286 290 293 296 298 299 297 296 297 301 305 309 310 309 308 310 311 312 314 316 316 314 310 307 306 306 308 310 310 311 311 311 310 307 302 298 295 292 290 287 284 281
316 320 323 326 327 319 298 289 289 289 288 287 286 284 284 282 281 282 284 284 284 284 283 283 282 281 281 281 282 283 285 287 288 288 287 284 280 277 275 275 276 277 276 276 279 283 287 290 294 297 296 294 293 295 300 305 307 307 307 308 309 309 310 312 311 308 305 304 304 305 307 309 310 310 309 309 308 307 305 304 303 302 300 298 294 289
319 322 325 329 330 323 309 307 307 306 303 300 295 292 292 291 290 288 288 287 287 287 287 287 285 284 283 282 282 283 284 285 286 286 285 281 276 273 273 273 274 274 274 275 276 277 278 279 282 287 291 294 295 296 299 301 303 305 308 310 309 308 307 308 307 304 303 303 304 305 307 307 307 306 306 307 308 308 308 309 310 310 309 307 304 299
318 320 322 324 323 316 311 311 311 308 305 304 304 303 302 302 302 300 298 295 293 292 291 290 287 285 283 282 282 282 282 283 283 282 279 276 272 269 269 271 273 275 276 275 274 272 271 271 273 277 281 286 291 295 297 299 300 304 308 309 308 306 305 306 304 302 302 302 303 304 305 305 305 305 306 308 308 308 308 309 309 309 309 306 304 302
314 314 314 313 307 300 300 302 303 301 300 300 301 302 303 304 305 306 306 305 303 297 291 289 287 284 281 280 280 280 280 279 278 276 274 271 268 266 265 268 271 274 276 275 273 270 268 267 270 273 276 280 285 289 292 294 296 300 302 301 300 300 302 303 302 301 301 302 301 302 303 303 304 306 307 308 307 307 307 306 306 305 305 303 300 298
307 306 305 303 298 294 295 296 297 297 297 297 297 299 300 304 307 310 312 313 312 311 307 304 301 300 299 297 295 293 291 288 284 279 275 270 267 264 263 264 267 270 272 273 272 269 267 267 268 270 273 278 282 286 289 291 293 295 295 294 297 300 303 302 302 302 303 302 301 301 301 302 303 304 306 306 305 305 305 303 302 300 299 297 296 294
301 300 299 297 294 292 292 293 294 293 293 294 295 296 299 304 308 310 310 309 309 310 313 314 314 312 311 312 313 314 313 313 307 299 291 281 272 266 263 262 263 264 267 269 269 268 268 267 266 267 271 275 278 281 285 288 291 292 291 291 295 299 300 299 301 303 302 301 301 301 300 301 302 304 305 304 303 302 301 300 299 297 294 293 293 291
302 302 300 297 294 292 292 290 287 285 286 288 291 294 299 305 308 308 304 303 303 306 310 314 315 314 312 310 311 314 315 316 315 311 307 298 288 278 272 268 266 264 265 267 267 267 269 269 267 268 271 273 275 277 280 284 287 289 289 290 289 288 287 291 296 299 299 299 299 299 300 302 303 304 304 302 301 300 299 298 297 296 295 294 293 292
299 299 297 294 291 290 288 287 285 285 286 289 293 299 304 310 311 306 299 299 301 304 306 311 313 313 309 308 311 313 314 313 313 312 312 309 304 296 289 284 279 276 273 272 271 271 270 269 270 272 274 274 272 272 275 279 282 285 286 287 286 284 283 286 290 293 295 296 297 299 301 303 304 304 302 300 299 299 299 298 297 297 296 296 295 293
292 293 292 290 288 285 285 286 288 291 292 295 298 302 308 312 311 303 294 295 298 301 303 307 309 307 303 304 307 310 311 311 311 313 314 314 314 310 305 299 294 290 287 283 281 279 277 273 273 275 276 275 273 271 271 273 277 280 282 284 285 285 285 286 287 289 291 294 296 298 301 304 303 301 298 298 298 299 298 297 296 295 295 295 294 293
289 289 288 286 284 283 284 286 290 293 296 298 300 303 307 310 309 301 293 291 294 298 301 305 305 301 297 298 301 303 305 306 309 310 311 312 312 312 310 307 302 297 293 289 286 283 280 279 279 277 274 273 273 273 273 272 272 274 277 281 283 284 284 284 286 288 290 291 293 296 300 301 301 299 297 298 298 298 297 296 294 292 292 292 291 290
283 283 282 281 281 282 283 285 288 291 294 296 298 301 305 309 309 304 298 292 292 295 299 302 301 298 295 294 296 298 300 301 303 306 308 309 309 309 309 308 305 300 294 291 288 285 283 280 279 276 272 268 268 270 273 272 272 272 273 276 279 280 280 282 285 288 289 289 291 293 296 296 295 295 297 298 297 297 296 295 293 291 289 288 287 286
272 274 275 276 279 283 286 288 291 293 295 297 299 303 308 312 308 299 294 291 290 292 295 297 297 295 294 294 295 297 298 299 300 302 304 306 307 307 306 307 305 302 297 293 290 287 284 281 278 273 268 264 262 263 267 270 271 271 271 272 274 275 277 280 283 286 288 289 291 293 294 293 292 291 293 292 293 294 294 294 293 291 289 287 285 284
262 264 267 272 278 283 287 291 293 295 295 297 299 302 307 309 305 297 291 289 288 289 290 289 289 289 289 291 293 295 296 297 298 299 301 303 305 305 304 303 303 300 297 294 291 288 286 284 281 277 271 264 260 259 261 265 269 271 271 271 272 273 275 278 282 285 288 290 292 293 294 292 290 289 289 288 288 290 292 292 292 291 290 288 287 285
256 259 263 269 275 280 284 287 289 290 290 291 294 296 299 299 298 296 294 291 289 287 285 284 283 283 284 287 290 292 293 294 294 296 298 302 303 302 301 300 299 297 295 293 292 291 290 289 288 286 281 271 262 258 258 261 266 270 271 272 273 274 276 279 283 287 290 291 292 293 292 291 289 287 285 284 286 288 290 290 290 290 290 289 288 286